TimeCDT,TemperatureF,Dew PointF,Humidity,Sea Level PressureIn,VisibilityMPH,Wind Direction,Wind SpeedMPH,Gust SpeedMPH,PrecipitationIn,Events,Conditions,WindDirDegrees,DateUTC
12:15 AM,70.0,70.0,100,29.94,10.0,SE,13.8,20.7,N/A,,Overcast,130,2013-10-30 05:15:00
12:35 AM,70.0,70.0,100,29.94,10.0,SE,13.8,21.9,N/A,,Overcast,130,2013-10-30 05:35:00
12:55 AM,69.8,69.8,100,29.95,10.0,ESE,15.0,21.9,N/A,,Overcast,120,2013-10-30 05:55:00
1:15 AM,70.0,70.0,100,29.94,10.0,ESE,11.5,21.9,N/A,,Overcast,110,2013-10-30 06:15:00
1:35 AM,70.0,70.0,100,29.94,10.0,ESE,13.8,19.6,N/A,,Mostly Cloudy,120,2013-10-30 06:35:00
1:55 AM,69.8,69.8,100,29.92,10.0,SE,12.7,19.6,N/A,,Overcast,130,2013-10-30 06:55:00
2:15 AM,70.0,70.0,100,29.92,10.0,ESE,15.0,19.6,N/A,,Overcast,120,2013-10-30 07:15:00
2:35 AM,69.8,69.8,100,29.92,10.0,ESE,12.7,19.6,N/A,,Overcast,110,2013-10-30 07:35:00
2:55 AM,69.8,69.8,100,29.92,10.0,ESE,12.7,16.1,N/A,,Overcast,120,2013-10-30 07:55:00
3:15 AM,70.0,69.8,99,29.91,10.0,SE,13.8,19.6,N/A,,Overcast,130,2013-10-30 08:15:00
3:35 AM,70.2,70.0,99,29.90,10.0,SE,15.0,20.7,N/A,,Overcast,130,2013-10-30 08:35:00
3:55 AM,70.0,70.0,100,29.90,10.0,ESE,13.8,18.4,N/A,,Overcast,120,2013-10-30 08:55:00
4:15 AM,69.8,69.8,100,29.90,10.0,ESE,13.8,23.0,N/A,,Overcast,120,2013-10-30 09:15:00
4:35 AM,69.8,69.8,100,29.89,10.0,ESE,12.7,21.9,N/A,,Overcast,120,2013-10-30 09:35:00
4:55 AM,70.0,69.8,99,29.90,10.0,ESE,12.7,19.6,N/A,,Overcast,120,2013-10-30 09:55:00
5:15 AM,69.8,69.8,100,29.90,10.0,SE,11.5,18.4,N/A,,Overcast,130,2013-10-30 10:15:00
5:35 AM,69.8,69.8,100,29.90,10.0,ESE,13.8,20.7,N/A,,Overcast,120,2013-10-30 10:35:00
5:55 AM,69.8,69.6,99,29.89,10.0,ESE,13.8,20.7,N/A,,Overcast,120,2013-10-30 10:55:00
6:15 AM,69.8,69.4,99,29.88,10.0,ESE,17.3,26.5,N/A,,Overcast,120,2013-10-30 11:15:00
6:35 AM,69.3,69.3,100,29.88,10.0,ESE,13.8,25.3,N/A,,Mostly Cloudy,120,2013-10-30 11:35:00
6:55 AM,69.1,69.1,100,29.89,10.0,ESE,15.0,-,N/A,Thunderstorm,Mostly Cloudy,120,2013-10-30 11:55:00
7:15 AM,69.3,69.1,99,29.89,10.0,SE,16.1,19.6,N/A,Thunderstorm,Overcast,130,2013-10-30 12:15:00
7:35 AM,69.1,68.9,99,29.88,10.0,ESE,13.8,25.3,N/A,,Mostly Cloudy,120,2013-10-30 12:35:00
7:55 AM,68.5,68.5,100,29.88,10.0,ESE,12.7,20.7,N/A,,Scattered Clouds,120,2013-10-30 12:55:00
8:15 AM,68.7,68.7,100,29.89,10.0,ESE,12.7,19.6,N/A,,Mostly Cloudy,120,2013-10-30 13:15:00
8:35 AM,68.9,68.9,100,29.88,10.0,ESE,12.7,19.6,N/A,,Overcast,120,2013-10-30 13:35:00
8:55 AM,69.3,69.1,99,29.89,10.0,ESE,12.7,-,N/A,,Overcast,110,2013-10-30 13:55:00
9:15 AM,69.4,69.1,99,29.89,10.0,ESE,12.7,17.3,N/A,,Overcast,120,2013-10-30 14:15:00
9:35 AM,69.8,68.9,97,29.90,10.0,ESE,15.0,18.4,N/A,,Overcast,120,2013-10-30 14:35:00
9:55 AM,70.7,69.1,95,29.88,10.0,East,15.0,18.4,N/A,,Overcast,100,2013-10-30 14:55:00
10:15 AM,71.6,68.4,89,29.88,10.0,East,15.0,25.3,N/A,,Scattered Clouds,90,2013-10-30 15:15:00
10:35 AM,72.1,68.2,87,29.88,10.0,ENE,15.0,20.7,N/A,,Scattered Clouds,60,2013-10-30 15:35:00
10:55 AM,73.4,68.4,84,29.88,10.0,ENE,18.4,25.3,N/A,,Overcast,60,2013-10-30 15:55:00
11:15 AM,72.0,68.2,88,29.87,10.0,SE,15.0,21.9,N/A,Thunderstorm,Overcast,130,2013-10-30 16:15:00
11:35 AM,71.6,68.2,89,29.87,10.0,ESE,15.0,23.0,N/A,,Overcast,110,2013-10-30 16:35:00
11:55 AM,72.1,68.5,88,29.87,10.0,East,15.0,24.2,N/A,,Overcast,100,2013-10-30 16:55:00
12:15 PM,72.9,68.9,87,29.87,10.0,SE,13.8,21.9,N/A,,Overcast,130,2013-10-30 17:15:00
12:35 PM,75.6,69.3,81,29.85,10.0,SE,20.7,28.8,N/A,,Mostly Cloudy,130,2013-10-30 17:35:00
12:55 PM,74.5,68.7,82,29.85,10.0,East,17.3,24.2,N/A,,Mostly Cloudy,90,2013-10-30 17:55:00
1:15 PM,76.5,69.1,78,29.83,10.0,NE,18.4,24.2,N/A,,Overcast,50,2013-10-30 18:15:00
1:35 PM,76.5,68.7,77,29.82,10.0,NE,15.0,21.9,N/A,,Overcast,40,2013-10-30 18:35:00
1:55 PM,76.1,68.5,77,29.81,10.0,ESE,17.3,23.0,N/A,,Overcast,110,2013-10-30 18:55:00
2:15 PM,76.3,68.5,77,29.80,10.0,NE,15.0,20.7,N/A,,Overcast,40,2013-10-30 19:15:00
2:35 PM,75.9,68.5,78,29.78,10.0,NE,12.7,25.3,N/A,,Mostly Cloudy,40,2013-10-30 19:35:00
2:55 PM,76.3,68.4,76,29.77,10.0,ESE,18.4,24.2,N/A,,Mostly Cloudy,120,2013-10-30 19:55:00
3:15 PM,75.6,68.0,77,29.78,10.0,ESE,16.1,25.3,N/A,,Mostly Cloudy,110,2013-10-30 20:15:00
3:35 PM,75.6,68.2,78,29.77,10.0,NE,13.8,21.9,N/A,,Overcast,50,2013-10-30 20:35:00
3:55 PM,75.7,68.0,77,29.77,10.0,NE,17.3,24.2,N/A,,Overcast,50,2013-10-30 20:55:00
4:15 PM,75.7,68.2,77,29.75,10.0,ESE,17.3,23.0,N/A,,Scattered Clouds,120,2013-10-30 21:15:00
4:35 PM,76.1,68.4,77,29.75,10.0,ESE,16.1,20.7,N/A,,Scattered Clouds,120,2013-10-30 21:35:00
4:55 PM,76.3,68.0,75,29.72,10.0,ESE,12.7,18.4,N/A,,Clear,120,2013-10-30 21:55:00
5:15 PM,76.5,67.1,73,29.75,10.0,NNW,12.7,18.4,N/A,,Mostly Cloudy,340,2013-10-30 22:15:00
5:35 PM,76.1,67.1,74,29.74,10.0,North,9.2,17.3,N/A,,Scattered Clouds,360,2013-10-30 22:35:00
5:55 PM,75.6,67.3,75,29.75,10.0,NNE,12.7,17.3,N/A,,Scattered Clouds,20,2013-10-30 22:55:00
6:15 PM,74.7,68.0,80,29.74,10.0,ESE,11.5,-,N/A,,Scattered Clouds,120,2013-10-30 23:15:00
7:55 PM,71.8,68.2,88,29.74,10.0,SE,6.9,-,N/A,,Clear,130,2013-10-31 00:55:00
8:15 PM,71.2,68.2,90,29.75,10.0,ESE,8.1,-,N/A,,Clear,120,2013-10-31 01:15:00
8:35 PM,71.2,68.2,90,29.75,10.0,SE,9.2,-,N/A,,Clear,130,2013-10-31 01:35:00
8:55 PM,70.9,68.4,92,29.75,10.0,ESE,9.2,-,N/A,,Clear,120,2013-10-31 01:55:00
9:15 PM,70.7,68.9,94,29.75,10.0,SE,8.1,-,N/A,,Clear,130,2013-10-31 02:15:00
9:35 PM,70.3,70.3,100,29.74,10.0,ESE,10.4,-,N/A,,Clear,120,2013-10-31 02:35:00
9:55 PM,70.2,70.2,100,29.74,10.0,ESE,10.4,16.1,N/A,,Clear,120,2013-10-31 02:55:00
10:15 PM,70.2,70.2,100,29.74,10.0,ESE,12.7,18.4,N/A,,Mostly Cloudy,120,2013-10-31 03:15:00
10:35 PM,70.3,70.3,100,29.74,10.0,ESE,11.5,18.4,N/A,,Mostly Cloudy,120,2013-10-31 03:35:00
10:55 PM,69.8,69.8,100,29.73,10.0,ESE,11.5,20.7,N/A,,Light Drizzle,120,2013-10-31 03:55:00
11:15 PM,68.9,68.9,100,29.69,10.0,ESE,10.4,17.3,N/A,,Light Drizzle,110,2013-10-31 04:15:00
11:35 PM,68.9,68.9,100,29.69,10.0,ESE,13.8,20.7,N/A,,Mostly Cloudy,120,2013-10-31 04:35:00
11:55 PM,68.5,68.5,100,29.69,10.0,ESE,12.7,20.7,N/A,,Mostly Cloudy,110,2013-10-31 04:55:00